,

(GMT )
Vlieland

Weather History for EHVL - February, 2013

Change the Weather History Date:

Saturday, February 9, 2013

  Actual Average Record
Temperature  
Mean Temperature 34 °F -  
Max Temperature 37 °F 41 °F 48 °F (2008)
Min Temperature 30 °F 37 °F 19 °F (2012)
Degree Days  
Heating Degree Days 32    
Moisture  
Dew Point 29 °F    
Average Humidity 87    
Maximum Humidity 93    
Minimum Humidity 75    
Precipitation  
Precipitation 0.00 in - - ()
Sea Level Pressure  
Sea Level Pressure 30.05 in    
Wind  
Wind Speed 7 mph ()    
Max Wind Speed 15 mph    
Max Gust Speed -    
Visibility 6.2 miles    
Events Rain , Snow    
Averages and records for this station are not official NWS values.
T = Trace of Precipitation, MM = Missing Value Source: Averaged Metar Reports

Daily Weather History Graph

Daily Weather History Graph

Search for Another Location

Airport or City:

Trip Planner

Search our weather history database for the weather conditions in past years. The results will help you decide how hot, cold, wet, or windy it might be!

Date:

Astronomy

Feb. 09, 2013 Rise Set
Actual Time 8:10 AM CET 5:39 PM CET
Civil Twilight 7:33 AM CET 6:16 PM CET
Nautical Twilight 6:52 AM CET 6:57 PM CET
Astronomical Twilight 6:12 AM CET 7:38 PM CET
Moon 7:11 AM CET (2/9) 5:06 PM CET (2/9)
Length of Visible Light 10h 43m
Length of Day
9h 29m
Waning Crescent, 1% of the Moon is Illuminated
Feb 9
Waning Crescent
Feb 10
New
Feb 17
First Quarter
Feb 25
Full
Mar 4
Last Quarter

Hourly Weather History & Observations

Time (CET) Temp. Windchill Dew Point Humidity Pressure Visibility Wind Dir Wind Speed Gust Speed Precip Events Conditions
12:25 AM 32.0 °F 25.6 °F 26.6 °F 80% 30.09 in 6.2 mi East 6.9 mph - N/A   Overcast
12:55 AM 32.0 °F 27.5 °F 28.4 °F 87% 30.09 in 6.2 mi East 4.6 mph - N/A   Overcast
1:25 AM 32.0 °F 27.5 °F 28.4 °F 87% 30.06 in 6.2 mi East 4.6 mph - N/A   Mostly Cloudy
1:55 AM 32.0 °F 28.7 °F 28.4 °F 87% 30.09 in 6.2 mi East 3.5 mph - N/A   Mostly Cloudy
2:25 AM 32.0 °F - 28.4 °F 87% 30.09 in 6.2 mi NNW 1.2 mph - N/A Snow Light Snow
2:55 AM 33.8 °F - 28.4 °F 81% 30.09 in 6.2 mi ESE 2.3 mph - N/A   Mostly Cloudy
3:25 AM 32.0 °F - 26.6 °F 80% 30.09 in 6.2 mi SSW 2.3 mph - N/A   Mostly Cloudy
3:55 AM 32.0 °F - 26.6 °F 80% 30.09 in 3.7 mi South 1.2 mph - N/A Snow Light Snow
4:25 AM 32.0 °F 28.7 °F 28.4 °F 87% 30.09 in 6.2 mi WSW 3.5 mph - N/A Snow Light Snow
4:55 AM 30.2 °F 26.7 °F 26.6 °F 86% 30.09 in 6.2 mi SSW 3.5 mph - N/A   Partly Cloudy
5:25 AM 32.0 °F 28.7 °F 28.4 °F 87% 30.09 in 6.2 mi SSW 3.5 mph - N/A   Overcast
5:55 AM 32.0 °F 27.5 °F 28.4 °F 87% 30.09 in 6.2 mi SW 4.6 mph - N/A   Mostly Cloudy
6:25 AM 32.0 °F 26.4 °F 28.4 °F 87% 30.09 in 6.2 mi SW 5.8 mph - N/A   Overcast
6:55 AM 32.0 °F 28.7 °F 30.2 °F 93% 30.09 in 6.2 mi SW 3.5 mph - N/A   Overcast
7:25 AM 32.0 °F 26.4 °F 30.2 °F 93% 30.09 in 6.2 mi SW 5.8 mph - N/A Rain , Snow Light Snow
7:55 AM 32.0 °F 26.4 °F 30.2 °F 93% 30.09 in 6.2 mi SSW 5.8 mph - N/A Snow Light Snow
8:25 AM 32.0 °F 26.4 °F 30.2 °F 93% 30.09 in 6.2 mi SSW 5.8 mph - N/A   Overcast
8:55 AM 32.0 °F 25.6 °F 30.2 °F 93% 30.09 in 6.2 mi SSW 6.9 mph - N/A   Overcast
9:25 AM 32.0 °F 24.8 °F 30.2 °F 93% 30.09 in 6.2 mi SSW 8.1 mph - N/A   Overcast
9:55 AM 33.8 °F 27.0 °F 30.2 °F 87% 30.09 in 6.2 mi SSW 8.1 mph - N/A   Mostly Cloudy
10:25 AM 33.8 °F 27.7 °F 32.0 °F 93% 30.09 in 6.2 mi South 6.9 mph - N/A   Scattered Clouds
10:29 AM 33.8 °F 28.6 °F 32.0 °F 93% 30.09 in 6.2 mi South 5.8 mph - N/A   Mostly Cloudy
10:33 AM 33.8 °F 28.6 °F 32.0 °F 93% 30.09 in 6.2 mi South 5.8 mph - N/A   Mostly Cloudy
10:34 AM 33.8 °F 28.6 °F 32.0 °F 93% 30.09 in 6.2 mi South 5.8 mph - N/A   Mostly Cloudy
10:46 AM 33.8 °F 28.6 °F 32.0 °F 93% 30.09 in 6.2 mi SSE 5.8 mph - N/A   Overcast
10:55 AM 35.6 °F 30.7 °F 32.0 °F 87% 30.09 in 6.2 mi SSE 5.8 mph - N/A   Overcast
11:25 AM 35.6 °F 30.7 °F 32.0 °F 87% 30.09 in 6.2 mi SSE 5.8 mph - N/A   Mostly Cloudy
11:55 AM 35.6 °F 29.2 °F 32.0 °F 87% 30.09 in 6.2 mi South 8.1 mph - N/A   Mostly Cloudy
11:57 AM 35.6 °F 29.2 °F 32.0 °F 87% 30.09 in 6.2 mi South 8.1 mph - N/A   Mostly Cloudy
12:07 PM 35.6 °F 29.2 °F 32.0 °F 87% 30.09 in 6.2 mi South 8.1 mph - N/A   Mostly Cloudy
12:25 PM 35.6 °F 29.2 °F 30.2 °F 81% 30.09 in 6.2 mi South 8.1 mph - N/A   Mostly Cloudy
12:55 PM 35.6 °F 28.6 °F 30.2 °F 81% 30.09 in 6.2 mi South 9.2 mph - N/A   Overcast
1:25 PM 35.6 °F 28.6 °F 30.2 °F 81% 30.09 in 6.2 mi South 9.2 mph - N/A   Mostly Cloudy
1:55 PM 35.6 °F 28.6 °F 30.2 °F 81% 30.09 in 6.2 mi South 9.2 mph - N/A   Overcast
2:25 PM 35.6 °F 29.2 °F 30.2 °F 81% 30.06 in 6.2 mi South 8.1 mph - N/A   Overcast
2:55 PM 35.6 °F 29.2 °F 30.2 °F 81% 30.06 in 6.2 mi South 8.1 mph - N/A   Overcast
3:25 PM 35.6 °F 29.2 °F 30.2 °F 81% 30.06 in 6.2 mi South 8.1 mph - N/A   Overcast
3:55 PM 37.4 °F 31.4 °F 30.2 °F 75% 30.06 in 6.2 mi South 8.1 mph - N/A   Overcast
4:25 PM 35.6 °F 29.9 °F 30.2 °F 81% 30.06 in 6.2 mi SSE 6.9 mph - N/A   Overcast
4:55 PM 35.6 °F 29.9 °F 28.4 °F 75% 30.06 in 6.2 mi SSE 6.9 mph - N/A   Overcast
5:20 PM 33.8 °F 27.7 °F 28.4 °F 81% 30.06 in 6.2 mi SSE 6.9 mph - N/A   Overcast
5:25 PM 33.8 °F 27.7 °F 28.4 °F 81% 30.06 in 6.2 mi SE 6.9 mph - N/A   Overcast
5:29 PM 33.8 °F 27.7 °F 28.4 °F 81% 30.06 in 6.2 mi SE 6.9 mph - N/A   Overcast
5:55 PM 32.0 °F 25.6 °F 28.4 °F 87% 30.04 in 6.2 mi SE 6.9 mph - N/A   Scattered Clouds
6:25 PM 32.0 °F 24.8 °F 28.4 °F 87% 30.04 in 6.2 mi SE 8.1 mph - N/A   Scattered Clouds
6:45 PM 30.2 °F 21.9 °F 26.6 °F 86% 30.04 in 6.2 mi ESE 9.2 mph - N/A   Scattered Clouds
6:55 PM 30.2 °F 21.9 °F 26.6 °F 86% 30.04 in 6.2 mi SE 9.2 mph - N/A   Partly Cloudy
7:01 PM 32.0 °F 24.2 °F 28.4 °F 87% 30.04 in 6.2 mi SE 9.2 mph - N/A   Scattered Clouds
7:02 PM 32.0 °F 23.6 °F 28.4 °F 87% 30.04 in 6.2 mi SE 10.4 mph - N/A   Mostly Cloudy
7:19 PM 32.0 °F 24.2 °F 28.4 °F 87% 30.04 in 6.2 mi SE 9.2 mph - N/A   Scattered Clouds
7:25 PM 32.0 °F 24.2 °F 28.4 °F 87% 30.04 in 6.2 mi SE 9.2 mph - N/A   Mostly Cloudy
7:29 PM 32.0 °F 24.2 °F 28.4 °F 87% 30.04 in 6.2 mi SSE 9.2 mph - N/A   Mostly Cloudy
7:33 PM 32.0 °F 24.2 °F 28.4 °F 87% 30.04 in 6.2 mi SSE 9.2 mph - N/A   Mostly Cloudy
7:55 PM 32.0 °F 24.2 °F 28.4 °F 87% 30.04 in 6.2 mi SE 9.2 mph - N/A   Mostly Cloudy
8:05 PM 32.0 °F 24.2 °F 28.4 °F 87% 30.04 in 6.2 mi SSE 9.2 mph - N/A   Mostly Cloudy
8:14 PM 32.0 °F 24.2 °F 28.4 °F 87% 30.04 in 6.2 mi SE 9.2 mph - N/A   Overcast
8:18 PM 32.0 °F 24.8 °F 28.4 °F 87% 30.04 in 6.2 mi SE 8.1 mph - N/A   Overcast
8:25 PM 32.0 °F 24.8 °F 28.4 °F 87% 30.04 in 6.2 mi SE 8.1 mph - N/A   Mostly Cloudy
8:36 PM 32.0 °F 24.2 °F 28.4 °F 87% 30.04 in 6.2 mi SE 9.2 mph - N/A   Scattered Clouds
8:55 PM 32.0 °F 22.5 °F 28.4 °F 87% 30.04 in 6.2 mi SE 12.7 mph - N/A   Scattered Clouds
9:01 PM 32.0 °F 22.5 °F 28.4 °F 87% 30.04 in 6.2 mi SE 12.7 mph - N/A   Mostly Cloudy
9:05 PM 32.0 °F 22.5 °F 28.4 °F 87% 30.04 in 6.2 mi SE 12.7 mph - N/A   Overcast
9:09 PM 32.0 °F 22.5 °F 28.4 °F 87% 30.04 in 6.2 mi SE 12.7 mph - N/A   Overcast
9:13 PM 32.0 °F 22.1 °F 28.4 °F 87% 30.04 in 6.2 mi SE 13.8 mph - N/A   Overcast
9:18 PM 33.8 °F 24.3 °F 28.4 °F 81% 30.01 in 6.2 mi SE 13.8 mph - N/A   Overcast
9:25 PM 32.0 °F 22.1 °F 28.4 °F 87% 30.01 in 6.2 mi SE 13.8 mph - N/A   Overcast
9:28 PM 32.0 °F 21.6 °F 28.4 °F 87% 30.01 in 6.2 mi SE 15.0 mph - N/A   Overcast
9:35 PM 32.0 °F 21.6 °F 28.4 °F 87% 30.01 in 6.2 mi SE 15.0 mph - N/A   Mostly Cloudy
9:48 PM 32.0 °F 21.6 °F 28.4 °F 87% 30.01 in 6.2 mi SE 15.0 mph - N/A   Mostly Cloudy
9:55 PM 32.0 °F 21.6 °F 28.4 °F 87% 30.01 in 6.2 mi SE 15.0 mph - N/A   Mostly Cloudy
10:00 PM 32.0 °F 21.6 °F 28.4 °F 87% 30.01 in 6.2 mi SE 15.0 mph - N/A   Mostly Cloudy
10:01 PM 32.0 °F 21.6 °F 28.4 °F 87% 30.01 in 6.2 mi SE 15.0 mph - N/A Snow Light Snow
10:25 PM 32.0 °F 21.6 °F 28.4 °F 87% 30.01 in 6.2 mi SE 15.0 mph - N/A   Mostly Cloudy
10:40 PM 32.0 °F 22.1 °F 28.4 °F 87% 30.01 in 6.2 mi SE 13.8 mph - N/A   Mostly Cloudy
10:42 PM 32.0 °F 21.6 °F 28.4 °F 87% 30.01 in 6.2 mi SE 15.0 mph - N/A   Mostly Cloudy
10:48 PM 32.0 °F 21.6 °F 28.4 °F 87% 29.98 in 6.2 mi ESE 15.0 mph - N/A   Mostly Cloudy
10:55 PM 32.0 °F 21.6 °F 28.4 °F 87% 29.98 in 6.2 mi ESE 15.0 mph - N/A   Overcast
10:59 PM 32.0 °F 21.6 °F 28.4 °F 87% 29.98 in 6.2 mi ESE 15.0 mph - N/A   Mostly Cloudy
11:03 PM 32.0 °F 21.6 °F 28.4 °F 87% 29.98 in 6.2 mi ESE 15.0 mph - N/A   Mostly Cloudy
11:25 PM 32.0 °F 21.6 °F 30.2 °F 93% 29.98 in 6.2 mi ESE 15.0 mph - N/A   Light Drizzle
11:34 PM 32.0 °F 21.6 °F 30.2 °F 93% 29.98 in 6.2 mi ESE 15.0 mph - N/A   Light Drizzle
11:41 PM 32.0 °F 21.6 °F 30.2 °F 93% 29.98 in 6.2 mi ESE 15.0 mph - N/A   Overcast
11:45 PM 32.0 °F 21.6 °F 30.2 °F 93% 29.98 in 6.2 mi ESE 15.0 mph - N/A   Overcast
11:49 PM 32.0 °F 21.6 °F 30.2 °F 93% 29.98 in 6.2 mi ESE 15.0 mph - N/A   Overcast
11:55 PM 32.0 °F 21.6 °F 30.2 °F 93% 29.98 in 6.2 mi ESE 15.0 mph - N/A   Overcast